Torna al catalogo

INTELSAT 4A-F3

AttivoComunicazioniGEO
NORAD 10557·PAYLOAD· XX

Lanciato Jan 7, 1978 da Cape Canaveral Space Force Station

Loading…

TLE

AggiornatoSource: Space-Track

Epoca: Sep 14, 2026, 12:44 UTC

1 10557U 78002A   26257.53084872 -.00000352  00000-0  00000+0 0  9994
2 10557   8.8295 312.1338 0004958 290.9315  77.9028  0.99916021 49641

Traccia INTELSAT 4A-F3 in tempo reale con AllMySat

Download on the App Store